This demonstration page uses our WeatherBlox Daily Observations layout. Learn more.

Left ArrowRight Arrow

39.01783, -85.05884

Hourly Observations for July 26, 2018

Temp ( °F °C ) Dew Point ( °F °C ) Humidity (%) Winds ( mph kmh ) Pressure ( in mb ) Visibility ( mi km ) Precip ( " mm )
12:52 am 00:52 Mostly Clear 68 20 66 18.9 93 93 Calm 29.94 1014 10 16 0.00 0.00
1:52 am 01:52 Mostly Clear 68 20 66 18.9 93 93 WSW 3 6 29.94 1014 9 14 0.00 0.00
2:52 am 02:52 Mostly Clear 66 18.9 66 18.9 100 100 Calm 29.93 1014 7 11 0.00 0.00
3:52 am 03:52 Mostly Clear 67 19.4 66 18.9 97 97 W 5 7 29.93 1013 8 13 0.00 0.00
4:52 am 04:52 Clear with Mist and Fog 66 18.9 66 18.9 100 100 Calm 29.93 1014 6 10 0.00 0.00
5:52 am 05:52 Partly Cloudy with Mist and Fog 64 17.8 64 17.8 100 100 Calm 29.93 1014 5 8 0.00 0.00
6:18 am 06:18 Partly Cloudy 66 18.9 66 18.9 100 100 W 5 7 29.94 1014 8 13 0.00 0.00
6:52 am 06:52 Mostly Cloudy 64 17.8 63 17.2 96 96 Calm 29.95 1014 10 16 0.00 0.00
7:52 am 07:52 Mostly Cloudy 68 20 67 19.4 96 96 Calm 29.96 1015 10 16 0.00 0.00
8:52 am 08:52 Mostly Cloudy 73 22.8 67 19.4 81 81 SW 5 7 29.96 1015 10 16 0.00 0.00
9:52 am 09:52 Mostly Sunny 77 25 66 18.9 69 69 VRB 5 7 29.96 1015 10 16 0.00 0.00
10:52 am 10:52 Partly Cloudy 80 26.7 65 18.3 60 60 SSW 8 13 29.95 1014 10 16 0.00 0.00
11:52 am 11:52 Partly Cloudy 82 27.8 67 19.4 60 60 WSW 9 15 29.97 1015 10 16 0.00 0.00
12:52 pm 12:52 Mostly Cloudy 83 28.3 66 18.9 57 57 WSW 12 19 29.96 1014 10 16 0.00 0.00
1:52 pm 13:52 Mostly Cloudy 85 29.4 66 18.9 53 53 SW 12 19 29.95 1014 10 16 0.00 0.00
2:52 pm 14:52 Mostly Cloudy 85 29.4 67 19.4 55 55 W 9 15 29.94 1014 10 16 0.00 0.00
3:52 pm 15:52 Mostly Cloudy 85 29.4 65 18.3 51 51 W 8 13 29.93 1014 10 16 0.00 0.00
4:52 pm 16:52 Mostly Cloudy 86 30 64 17.8 48 48 WSW 7 11 29.92 1013 10 16 0.00 0.00
5:52 pm 17:52 Mostly Cloudy 85 29.4 66 18.9 53 53 SW 9 15 29.92 1013 10 16 0.00 0.00
6:52 pm 18:52 Mostly Cloudy 83 28.3 66 18.9 57 57 SW 8 13 29.92 1013 10 16 0.00 0.00
7:52 pm 19:52 Cloudy 81 27.2 67 19.4 62 62 WSW 6 9 29.92 1013 10 16 0.00 0.00
8:52 pm 20:52 Cloudy with Thunderstorms 79 26.1 68 20 69 69 WSW 9 15 29.94 1014 10 16 0.00 0.03
9:20 pm 21:20 Cloudy with Light Rain 75 23.9 70 21.1 84 84 W 17 28 29.94 1014 10 16 0.01 0.25
9:52 pm 21:52 Cloudy 74 23.3 69 20.6 85 85 W 10 17 29.94 1014 10 16 0.01 0.25
10:52 pm 22:52 Cloudy 73 22.8 69 20.6 87 87 W 6 9 29.95 1014 10 16 0.00 0.00
11:52 pm 23:52 Cloudy 74 23.3 67 19.4 79 79 W 10 17 29.95 1014 10 16 0.00 0.00
11:57 pm 23:57 Cloudy with Thunderstorms 74 23.3 68 20 82 82 W 9 15 29.97 1015 10 16 0.00 0.03

Powered by AerisWeather